Location: Unspecified
(51.0950°N, 12.9690°E)
Time: 14:31:09
(UTC+00:00)

BEESAT - Pass Details

Date: 30 April 2024
Orbit: 692 x 702 km, 98.5° (Epoch: 19 May)

Event Time Altitude Azimuth Distance (km) Brightness Sun altitude
Rises 22:15:09 0° 9° (N) 3,083 ? -22.9°
Reaches altitude 10° 22:17:32 10° 1° (N) 2,161 ? -22.9°
Maximum altitude 22:21:50 36° 295° (WNW) 1,091 ? -23.1°
Enters shadow 22:24:08 23° 245° (WSW) 1,474 ? -23.2°
